Location: Bambrugge
(50.9212°N, 3.9299°E)
Time: 13:11:04
(UTC+00:00)

Aureole 3 - Pass Details

Date: 23 May 2024
Orbit: 378 x 1127 km, 82.5° (Epoch: 16 June)

Event Time Altitude Azimuth Distance (km) Brightness Sun altitude
Exits shadow 01:09:41 34° 247° (WSW) 650 3.3 -15.8°
Maximum altitude 01:10:23 41° 285° (WNW) 569 3.3 -15.8°
Drops below altitude 10° 01:13:16 10° 358° (N) 1,431 6.5 -15.6°
Sets 01:15:23 0° 5° (N) 2,336 8.0 -15.5°
